Location: Treviso
(45.6669°N, 12.2430°E)
Time: 00:49:32
(UTC+02:00)

ISS - Pass Details

Date: 18 April 2026
Orbit: 416 x 425 km, 51.6° (Epoch: 18 April)

Event Time Altitude Azimuth Distance (km) Brightness Sun altitude
Exits shadow 05:24:43 - 195° (SSW) 1,832 -0.9 -9.9°
Reaches altitude 10° 05:25:44 10° 186° (S) 1,493 -1.3 -9.7°
Maximum altitude 05:28:17 20° 137° (SE) 1,022 -1.6 -9.3°
Drops below altitude 10° 05:30:52 10° 87° (E) 1,505 0.3 -8.9°
Sets 05:33:19 0° 70° (ENE) 2,375 2.5 -8.5°
